Location: Unspecified
(41.1850°N, 73.2650°W)
Time: 13:39:42
(UTC+00:00)

SL-08 R/B - Pass Details

Date: 20 March 2026
Orbit: 946 x 992 km, 83.0° (Epoch: 18 April)

Event Time Altitude Azimuth Distance (km) Brightness Sun altitude
Rises 02:28:27 0° 225° (SW) 3,611 7.5 -36.5°
Reaches altitude 10° 02:31:33 10° 240° (WSW) 2,666 6.9 -36.9°
Maximum altitude 02:36:09 22° 290° (WNW) 1,943 6.5 -37.6°
Drops below altitude 10° 02:40:46 10° 340° (NNW) 2,675 7.4 -38.2°
Sets 02:43:54 0° 355° (N) 3,626 8.1 -38.7°
